Theta_e
353 354 354 354 355 355 356 356 358 359 359 360 361 360 360 360 360 361 362 363 364 364 365 365 365 365 365 364 363 363 364 364 364 363 363 362 360 359 358 357 357 355 353 351 349 347 346 345 344 343 343 342 343 343 343 343 342 341 340 340 340 340 340
353 353 354 354 354 356 356 357 359 360 359 360 361 360 360 360 360 361 362 363 364 364 365 365 366 365 365 364 364 364 364 364 364 364 363 363 361 360 359 357 357 356 354 352 349 348 346 345 344 343 342 343 343 343 343 343 343 342 341 340 340 340 340
352 352 353 354 355 357 357 358 359 360 359 359 360 360 360 360 360 361 361 363 364 364 365 365 365 365 365 365 364 364 364 364 365 364 362 362 362 361 359 359 358 356 355 353 351 349 347 346 344 343 343 343 343 343 343 343 343 343 342 340 339 339 339
352 352 353 354 356 357 357 357 359 360 359 358 359 359 360 360 361 361 361 363 364 364 365 365 365 365 365 365 365 365 365 365 364 364 362 362 362 361 360 359 358 356 354 352 350 348 346 344 344 343 343 343 343 343 343 343 342 342 342 340 340 339 340
352 352 352 354 354 357 358 357 358 360 358 358 359 359 360 361 361 361 362 363 363 364 364 364 365 365 365 365 365 365 366 365 364 364 363 362 361 361 359 358 358 356 354 352 350 348 345 343 342 343 343 343 343 342 343 343 342 342 341 340 340 340 340
352 352 353 353 353 355 357 356 357 360 358 358 359 360 360 360 360 361 362 362 363 363 364 364 365 366 365 365 365 365 366 365 364 364 363 362 361 360 358 358 357 355 353 351 349 346 344 342 342 342 343 343 342 341 342 342 342 341 341 340 340 340 339
352 354 354 353 353 354 354 355 357 358 358 358 358 360 360 359 360 360 360 362 363 363 364 364 365 365 365 365 365 365 365 365 365 364 363 361 359 358 358 357 356 354 353 350 347 343 342 342 341 343 343 342 341 341 341 341 341 341 341 340 341 340 339
354 356 355 353 353 352 353 355 356 357 358 358 358 359 359 358 359 359 360 362 362 362 363 363 365 366 365 365 365 365 365 365 366 364 361 360 357 357 357 357 355 353 352 350 345 342 341 340 342 344 343 342 342 341 340 341 341 341 340 340 340 339 338
353 356 354 353 351 350 352 354 356 357 358 359 359 359 360 359 360 360 359 361 361 362 362 362 364 365 366 366 366 365 365 365 365 362 360 358 357 356 357 356 355 353 352 350 345 340 340 341 344 343 340 340 338 336 336 340 341 340 339 339 339 338 338
353 356 356 354 351 350 352 353 357 358 359 361 360 360 361 360 360 360 360 360 361 361 362 362 362 365 366 367 366 366 366 365 363 361 359 357 356 356 357 356 354 353 352 349 344 340 340 341 340 337 336 336 331 327 333 340 341 340 339 339 339 339 338
354 358 358 355 353 353 353 356 360 360 361 364 362 362 363 361 361 361 360 361 360 361 362 362 362 364 367 367 366 366 366 364 362 360 358 357 356 356 356 355 354 353 351 347 344 341 339 336 333 333 334 334 327 323 331 338 340 340 339 339 339 338 338
356 359 359 356 355 355 355 359 362 362 364 365 364 363 364 363 362 361 361 361 361 361 363 363 362 364 366 367 366 365 365 364 361 359 358 356 356 356 356 354 353 352 350 346 343 341 338 333 331 332 333 332 327 322 325 332 339 341 339 338 339 339 339
357 358 357 356 357 357 359 363 364 364 366 366 365 364 364 364 363 362 363 363 361 362 363 363 363 364 366 367 365 364 365 363 360 358 357 356 355 355 355 354 352 350 348 344 341 340 338 335 333 332 331 330 327 323 323 329 337 339 336 336 338 337 338
356 355 356 356 358 360 362 364 365 366 366 366 365 364 365 365 363 364 365 364 363 362 363 364 365 366 367 367 365 364 365 362 360 358 357 355 355 355 354 352 351 349 346 342 341 339 335 334 334 332 330 329 325 324 327 332 335 335 333 332 332 333 336
354 352 355 356 359 361 362 364 366 366 365 366 366 364 365 364 364 365 365 365 364 363 363 365 366 367 368 368 366 364 364 362 360 358 356 354 355 355 353 352 350 348 345 342 340 338 333 331 332 331 331 330 326 328 334 334 331 331 331 330 330 333 337
354 352 353 357 360 361 361 363 366 365 364 365 365 364 365 364 365 365 365 366 365 363 364 366 367 368 368 366 365 364 363 362 360 358 355 353 354 354 353 351 349 348 346 342 339 338 334 330 331 332 333 331 328 332 337 334 328 329 331 329 329 333 337
354 352 352 356 359 361 360 362 364 364 364 364 365 366 365 365 366 366 365 365 365 365 365 366 368 369 367 365 364 362 362 362 359 357 354 353 354 354 352 350 349 348 346 340 336 335 331 327 330 335 335 330 329 334 336 332 328 329 331 328 327 331 335
355 354 354 357 359 360 360 360 363 364 363 363 365 367 366 366 367 365 365 365 365 366 365 365 368 368 367 365 363 362 361 360 358 356 354 353 354 353 352 350 349 347 344 340 338 335 331 330 334 337 335 334 336 337 335 330 329 331 332 329 328 330 333
355 355 355 357 360 360 359 359 361 362 363 364 366 366 365 366 366 366 365 365 365 366 365 365 367 367 367 366 363 362 361 358 356 355 354 353 353 353 352 350 348 347 344 343 341 339 337 337 338 338 337 337 337 336 334 333 333 333 332 328 327 330 332
354 355 355 356 358 359 359 359 360 361 363 364 365 365 364 365 365 365 365 364 365 366 365 365 366 366 367 366 362 362 360 357 356 355 353 352 352 352 351 349 347 347 345 344 342 340 339 338 338 340 340 337 334 334 336 336 334 331 329 326 326 330 332
355 355 354 356 358 358 359 359 359 360 363 363 363 364 363 363 364 365 364 365 366 365 365 366 365 365 366 366 362 361 359 357 355 354 352 351 351 351 350 349 348 346 345 343 341 339 338 337 338 340 337 332 332 336 337 336 333 330 328 325 325 329 333
352 352 353 356 357 357 358 358 358 361 363 362 362 361 361 361 362 363 364 364 364 365 365 365 365 365 366 364 362 360 358 356 354 354 352 351 351 350 349 349 348 346 345 343 340 338 336 334 336 338 333 328 332 338 336 333 332 332 329 325 325 328 332
347 348 350 352 354 357 359 358 359 361 360 360 358 357 357 358 360 363 364 363 363 364 364 364 364 365 364 363 361 359 357 355 353 353 352 351 350 349 348 348 347 345 342 340 338 336 334 332 337 339 334 329 333 338 337 333 332 331 327 324 325 328 332
345 347 349 352 355 358 358 357 357 358 358 357 356 355 356 357 360 363 363 363 363 363 364 364 364 364 363 362 360 357 356 355 353 352 352 350 349 348 348 348 346 342 339 337 335 333 332 333 337 338 333 331 334 338 337 334 334 333 330 328 328 331 334
346 348 351 353 354 355 356 357 358 358 358 358 358 358 359 360 362 363 362 362 362 362 362 363 362 362 363 362 359 356 355 354 353 352 351 350 349 348 348 348 344 339 336 333 331 331 332 335 337 337 334 334 335 337 336 335 335 336 336 336 335 334 335
350 350 351 353 356 359 362 362 360 359 360 361 362 361 360 360 361 362 361 361 361 361 361 362 362 362 362 360 358 355 353 352 352 351 350 349 348 348 348 345 341 338 335 332 330 329 332 335 336 336 337 336 335 335 336 336 336 338 338 337 336 335 335
353 354 352 355 359 361 363 362 360 361 362 363 362 360 359 361 362 362 363 362 361 361 361 361 362 361 360 359 356 353 352 352 350 349 349 349 348 348 346 342 338 337 335 334 332 332 334 336 337 336 336 336 335 336 337 338 339 339 339 337 336 335 334
353 355 356 359 361 361 360 362 362 362 362 362 361 360 361 362 363 364 364 362 361 361 360 360 361 360 359 358 355 352 352 350 348 348 349 348 347 345 342 339 337 337 336 336 337 337 337 338 337 337 336 337 338 339 339 339 339 339 339 337 335 334 333
355 356 357 359 359 359 360 362 361 360 361 361 361 362 363 364 364 364 363 363 362 361 360 360 359 358 357 355 353 351 351 350 347 346 347 348 346 343 340 338 337 337 337 338 340 340 339 339 339 338 339 341 341 338 338 338 338 337 337 335 334 333 333
353 353 354 355 357 358 360 361 361 360 360 360 361 362 363 362 362 362 363 363 361 358 358 358 357 356 354 353 351 351 350 349 347 346 345 346 344 342 340 339 339 339 340 340 340 340 339 339 338 339 340 342 341 338 336 337 337 336 335 334 333 333 332
356 357 358 359 360 360 360 362 362 360 359 359 360 361 361 361 361 363 363 360 357 356 357 356 355 354 352 351 350 349 349 348 346 345 345 343 342 342 341 341 341 342 341 340 340 340 339 338 339 339 339 340 340 340 338 337 336 336 334 333 332 332 331
358 359 362 363 363 363 361 361 361 359 359 358 357 358 359 360 361 362 359 355 354 355 355 353 352 352 350 349 349 348 347 347 346 344 344 343 342 342 341 341 342 342 342 341 340 339 339 339 339 339 338 339 339 339 337 336 335 334 333 331 329 329 330
354 356 359 361 362 361 360 360 359 358 357 356 355 355 355 356 358 357 354 353 353 354 353 352 351 350 349 349 348 347 347 346 345 344 343 342 342 342 341 342 342 342 341 340 340 339 339 339 339 339 339 339 338 337 337 336 334 332 331 330 329 328 328
352 354 356 357 358 358 358 358 358 356 355 355 354 353 353 353 353 353 351 351 351 352 352 351 349 348 349 348 347 347 346 345 345 344 343 343 342 342 342 342 341 341 341 339 339 340 339 339 340 339 338 338 337 336 337 335 334 333 333 331 331 330 329
353 354 354 355 355 356 356 356 355 354 353 353 353 352 352 352 352 351 351 350 350 350 350 349 348 348 348 347 346 346 345 345 344 344 343 343 341 339 338 336 337 339 340 339 340 340 339 339 339 338 338 337 335 334 335 335 334 334 333 332 331 331 330
352 353 353 352 352 353 354 354 354 353 353 353 353 353 352 351 350 350 349 349 348 349 349 347 347 347 346 346 345 345 344 344 344 344 344 343 339 335 333 332 333 336 337 337 339 340 339 339 338 337 337 336 333 332 333 333 333 333 332 331 330 329 328
349 350 350 351 351 352 353 352 352 352 352 352 352 352 351 350 349 348 347 347 347 347 347 346 346 345 345 344 344 343 343 343 344 343 343 341 337 333 330 329 331 333 334 335 337 337 337 336 335 335 335 334 333 333 332 331 332 332 331 330 329 328 327
346 347 348 349 351 353 353 353 352 351 351 351 351 351 350 349 348 347 346 346 345 345 345 345 345 344 343 343 343 343 343 343 343 342 340 339 336 333 330 329 329 330 330 332 333 333 334 335 334 334 334 333 333 333 332 331 331 329 328 327 326 325 324
Wind_Speed
16 18 18 17 17 17 17 18 19 22 24 25 26 27 27 27 26 25 24 25 27 27 27 26 25 25 26 26 26 25 24 22 21 20 20 19 19 18 16 16 15 14 14 13 12 13 12 12 11 11 10 9 9 9 9 8 8 6 5 5 5 5 5
16 16 17 17 17 18 19 19 21 23 24 25 26 27 28 27 27 27 25 26 28 28 27 27 27 26 26 25 25 25 25 23 21 20 19 18 18 17 17 17 16 14 14 14 12 12 12 12 11 11 10 10 9 9 9 9 8 7 6 6 6 6 5
15 15 17 18 17 18 19 20 22 24 25 26 26 27 28 28 29 30 28 27 28 28 27 27 28 28 26 25 25 25 26 24 22 21 20 19 19 18 18 17 15 14 14 14 12 11 11 12 11 11 10 10 9 9 10 9 8 7 6 6 6 6 6
15 16 17 18 18 18 19 20 21 25 27 27 28 28 29 30 30 30 29 28 28 28 28 28 29 28 26 26 26 25 25 25 23 22 22 21 20 18 18 16 15 14 14 13 12 11 11 11 11 11 11 10 9 9 10 9 8 7 7 7 7 7 7
16 16 16 17 17 17 17 18 20 25 27 27 28 28 29 31 30 29 28 28 29 30 31 30 27 26 25 25 25 24 24 25 25 24 22 21 19 18 17 16 14 14 14 13 12 12 11 10 11 11 11 11 10 9 9 9 8 8 8 8 8 8 8
14 15 15 15 16 17 18 19 21 26 28 28 28 28 29 30 29 28 28 28 29 29 29 29 27 26 26 26 25 24 23 25 26 25 22 19 18 18 18 17 15 15 14 13 13 13 12 12 12 12 12 11 10 9 9 9 8 8 9 9 9 8 8
12 14 15 15 16 17 18 18 20 25 27 27 27 27 28 28 28 29 29 28 29 28 28 28 28 27 27 27 27 25 26 27 26 24 21 18 18 19 18 18 18 17 16 16 16 16 14 13 13 13 12 10 10 9 8 8 9 9 10 10 10 9 8
11 13 14 15 15 16 16 16 18 22 24 25 26 26 27 27 26 28 28 27 28 28 28 29 29 28 27 27 27 27 28 27 24 22 20 19 20 21 20 20 21 21 20 19 19 18 17 15 15 14 13 12 11 11 10 10 11 10 11 11 11 10 10
11 12 13 13 14 14 13 14 16 19 22 24 25 25 26 26 26 27 28 27 27 27 29 29 29 28 27 27 27 28 28 25 22 21 20 20 22 24 23 23 23 25 25 22 20 20 20 18 18 18 17 17 17 15 13 13 13 12 12 12 11 11 11
9 10 11 11 13 12 12 13 15 16 18 21 23 24 25 26 26 26 26 27 27 27 29 29 28 27 27 27 27 27 26 23 22 22 21 22 25 27 26 25 25 27 27 24 22 22 23 21 21 22 22 21 20 18 16 15 14 13 13 12 12 12 12
7 8 9 11 12 12 13 14 14 14 15 18 22 23 24 25 25 25 25 26 26 26 28 28 27 26 26 27 27 26 24 23 23 23 23 26 29 30 28 25 25 28 29 26 24 24 25 25 24 25 25 24 22 19 18 17 15 14 13 13 13 13 14
7 8 9 11 12 13 13 13 13 14 14 17 21 22 23 24 24 24 24 25 26 25 25 26 26 26 26 26 26 25 24 24 24 24 26 30 31 30 28 26 26 29 31 30 27 26 26 27 28 27 27 27 24 21 21 19 16 15 14 14 13 14 15
6 7 8 10 11 12 13 13 15 16 16 18 21 22 23 24 24 24 23 24 25 24 24 25 25 25 24 24 24 24 25 26 25 25 28 32 31 29 29 28 28 30 32 31 28 27 27 28 29 29 29 29 26 23 23 21 17 17 17 16 15 16 17
8 8 9 11 12 14 15 14 15 16 16 18 21 22 22 23 23 23 23 23 24 24 23 22 23 24 23 22 22 23 24 25 25 25 29 32 30 28 29 28 27 28 30 30 29 29 30 30 29 30 30 29 27 24 22 21 19 20 21 21 21 20 19
9 10 12 13 14 15 15 15 15 16 16 17 20 22 22 22 22 23 22 22 23 23 22 21 22 22 21 20 21 21 22 23 23 24 29 32 29 27 27 28 28 29 31 33 31 30 31 31 30 31 32 29 26 23 22 22 23 24 24 24 22 20 18
10 11 13 14 15 15 15 15 15 16 16 17 19 22 22 21 22 22 22 21 22 22 21 20 20 21 21 20 20 21 22 23 23 23 28 31 29 26 26 28 32 35 38 39 34 30 30 31 30 31 30 29 27 24 23 24 25 25 25 23 21 19 17
11 12 13 14 14 15 15 15 15 16 17 17 19 22 22 21 21 21 21 21 21 22 22 21 20 20 21 21 20 22 23 23 23 25 28 31 30 27 28 30 35 38 41 40 37 34 32 31 30 27 25 25 25 25 25 25 25 25 25 23 22 21 20
12 13 13 13 14 14 15 16 17 18 18 18 20 22 21 21 20 20 21 21 21 21 21 21 20 19 20 21 21 23 23 23 25 28 29 30 29 28 28 32 35 37 37 36 36 35 32 30 28 24 22 22 21 22 24 25 25 26 24 23 22 22 22
11 11 11 12 13 14 15 16 16 16 17 18 20 22 22 22 21 20 21 20 20 20 20 20 19 18 19 20 21 23 23 23 26 30 31 30 30 28 27 29 32 33 31 29 29 29 28 26 24 22 21 21 21 23 24 24 25 24 22 23 23 23 22
9 9 9 10 11 12 13 13 13 15 17 18 19 20 21 21 19 19 19 19 18 19 19 19 18 17 18 19 20 22 23 23 25 28 30 30 30 29 28 26 27 28 26 24 24 25 25 22 20 18 18 21 23 23 20 19 21 23 22 24 24 23 23
9 9 9 10 11 11 13 13 13 14 17 18 18 18 18 18 18 18 18 18 18 18 18 18 18 18 18 19 21 22 23 24 25 27 29 29 28 29 29 27 25 24 23 23 24 24 24 21 17 16 19 22 22 19 17 16 18 20 21 23 24 23 22
10 10 10 11 12 12 14 15 15 16 17 18 19 18 17 17 17 18 18 18 18 18 18 18 18 18 18 19 21 22 23 25 26 28 29 28 27 28 30 29 26 23 20 20 22 24 26 24 20 19 23 24 20 17 18 17 17 18 19 22 24 23 22
10 11 12 12 12 14 16 17 18 18 18 18 19 19 18 17 17 17 18 18 17 17 17 17 17 17 17 18 20 21 23 25 27 27 27 27 28 29 30 29 25 22 21 21 21 22 23 22 21 20 22 22 21 20 19 17 15 16 19 21 23 23 22
8 11 12 12 13 15 17 19 19 19 18 18 19 19 18 18 18 17 16 16 16 16 16 16 16 16 16 18 19 19 22 24 25 25 26 27 29 28 28 27 23 22 27 26 21 19 19 20 19 19 20 23 24 22 19 16 15 17 19 21 22 22 21
9 11 12 14 15 16 17 19 20 20 19 19 19 19 19 19 18 17 15 15 15 16 15 15 15 15 16 17 17 17 19 22 23 25 25 27 28 27 27 25 21 21 26 25 19 17 19 20 20 19 21 25 25 22 18 15 14 16 19 19 19 19 18
10 12 12 15 17 18 19 20 21 21 20 19 19 20 20 20 18 16 15 15 15 15 14 13 14 14 15 16 16 16 18 21 22 23 25 25 25 25 23 20 18 18 20 19 19 19 20 21 22 22 23 24 23 19 16 13 14 16 18 18 18 17 17
11 12 13 15 17 19 20 20 20 20 19 18 18 19 19 19 17 16 15 15 14 13 12 12 13 13 14 15 15 15 17 19 19 22 25 24 22 21 18 17 19 20 18 18 20 21 22 23 22 22 22 22 19 15 12 11 12 14 17 18 17 16 16
14 14 15 17 17 18 20 20 20 20 19 18 18 18 17 17 16 15 14 13 12 11 11 11 12 12 13 14 14 14 15 17 18 20 21 20 18 17 17 17 19 21 19 19 20 21 23 23 21 20 19 17 14 11 9 9 11 13 15 16 14 14 16
16 16 17 17 16 17 19 18 18 19 18 17 17 16 16 16 15 14 13 13 12 12 11 12 12 12 12 12 12 13 14 15 17 19 18 16 17 19 18 17 18 20 21 20 20 21 23 22 20 18 16 13 10 8 6 6 8 11 12 13 13 14 16
18 17 17 17 18 19 19 17 17 17 16 15 14 14 14 14 15 14 13 13 13 12 12 12 11 11 11 10 10 12 13 14 16 18 17 17 18 19 18 17 18 20 20 20 20 21 22 21 18 16 14 11 8 6 4 4 6 9 12 13 14 14 14
17 17 17 17 18 19 19 18 18 17 16 13 12 11 11 12 14 15 14 13 13 13 13 12 12 11 10 9 9 11 13 14 15 16 17 17 18 19 18 18 18 19 19 19 21 21 21 19 17 15 13 10 7 5 3 3 5 6 10 12 14 14 13
14 15 15 15 16 17 19 19 18 17 16 14 12 10 9 9 11 13 13 12 12 12 13 13 12 10 10 10 10 11 12 13 14 15 16 17 16 17 18 18 18 18 18 19 21 21 20 18 16 15 13 10 7 6 5 6 7 7 8 12 13 14 14
14 14 14 14 14 14 16 16 16 16 16 14 12 10 9 9 10 10 10 10 11 11 12 12 11 10 10 10 10 11 12 14 14 13 14 15 16 16 17 18 18 17 18 20 20 20 19 17 15 14 13 11 8 6 4 6 9 8 7 10 11 12 13
13 14 15 15 15 15 15 14 14 15 15 14 12 9 9 9 8 9 9 8 9 11 11 10 10 9 9 9 10 10 11 13 14 13 13 14 14 14 14 15 16 17 18 19 19 19 18 16 15 14 13 10 7 4 4 7 8 9 10 11 11 10 9
13 13 14 16 15 15 15 14 14 15 15 14 11 9 8 8 7 8 8 8 9 10 9 9 8 8 8 8 8 9 10 12 13 14 14 13 13 10 8 7 7 9 11 13 13 15 17 16 14 12 11 8 7 7 9 10 10 12 15 16 15 13 11
12 12 14 15 15 15 15 14 14 15 14 12 10 9 8 7 6 6 7 8 8 8 8 8 7 7 7 8 8 9 10 11 12 14 14 12 13 12 8 6 4 4 7 9 10 11 13 14 13 11 11 11 10 11 12 12 13 17 19 19 18 18 16
12 11 12 13 13 14 14 14 14 14 13 11 9 8 7 7 6 5 6 6 6 7 7 7 7 7 7 8 9 9 11 11 11 12 12 10 12 13 10 7 6 5 6 8 10 11 12 13 13 12 13 14 13 14 14 12 13 17 19 20 20 20 19
14 13 12 12 12 12 12 12 12 12 11 9 8 8 7 7 6 5 5 5 5 5 6 7 7 7 7 8 8 8 10 9 7 9 12 11 11 12 12 11 10 8 6 5 8 11 13 14 14 15 16 16 14 15 16 15 14 14 16 17 18 18 16
Wind_Direction
197 197 198 196 195 195 194 193 192 193 192 191 191 192 193 194 194 195 196 196 198 201 200 200 201 203 205 208 211 213 214 213 211 213 214 216 222 221 219 224 217 209 212 211 211 211 208 208 209 209 211 209 208 207 203 202 204 209 212 213 218 222 229
198 198 196 196 197 197 194 190 191 192 192 192 192 192 193 193 192 194 196 196 198 200 199 198 200 203 205 206 208 211 213 212 210 210 211 213 217 215 213 219 215 206 208 211 211 209 205 206 208 211 212 209 210 208 205 205 205 209 214 216 223 230 235
200 199 197 197 197 197 194 190 191 193 192 192 192 193 193 191 192 195 196 196 198 199 198 198 201 203 204 204 206 210 212 211 209 208 210 211 211 207 207 211 210 209 213 213 211 207 205 206 209 211 212 211 213 210 207 208 207 211 214 217 227 235 238
201 199 198 199 197 197 196 193 193 193 193 193 192 192 190 190 192 195 195 195 195 196 198 199 201 202 203 202 205 209 210 210 209 209 211 210 207 202 201 203 205 211 217 214 210 207 205 208 210 210 211 213 215 212 209 211 213 215 213 217 229 236 238
201 198 197 199 198 198 197 197 195 193 194 194 193 191 189 191 193 194 195 196 196 197 199 200 200 200 201 202 204 207 208 209 210 210 210 208 205 199 198 201 201 206 211 208 203 202 202 206 211 211 211 213 216 213 210 211 217 218 213 215 226 233 235
198 195 197 199 199 199 198 199 198 195 194 194 192 190 190 192 193 194 195 195 196 198 198 198 198 197 199 201 204 205 205 208 209 208 204 200 201 200 198 199 197 199 202 197 194 197 199 206 212 211 210 212 213 213 213 216 216 217 216 218 224 230 233
193 192 198 199 198 200 198 198 198 195 194 193 191 190 192 194 194 195 196 196 196 196 196 197 197 197 198 200 201 201 204 207 206 202 197 194 203 207 198 193 194 194 194 194 198 199 196 203 209 210 209 209 210 210 215 223 221 217 219 220 221 223 227
194 194 201 201 199 201 199 196 196 194 192 191 191 191 193 195 194 196 197 196 197 197 197 198 198 197 198 198 199 201 205 206 200 195 191 192 205 210 199 193 194 196 196 197 202 201 196 199 203 203 204 203 204 203 209 223 224 221 223 222 217 215 218
196 196 202 202 201 202 199 195 192 189 188 189 191 191 191 192 194 197 197 196 196 197 199 200 198 197 196 195 198 201 202 200 192 188 189 194 205 208 200 194 193 200 204 199 196 198 197 196 195 200 205 205 202 199 203 218 224 222 224 224 220 218 220
190 193 199 200 201 202 196 189 185 184 185 187 188 188 188 190 193 195 196 196 197 198 200 200 199 198 196 195 198 199 197 193 188 189 193 200 207 207 202 195 190 198 203 195 190 195 197 196 198 205 210 208 206 201 199 210 222 222 221 224 226 228 232
176 182 187 191 196 197 193 187 182 181 182 182 183 185 186 189 191 193 194 196 198 200 200 199 199 198 197 197 198 196 192 190 189 192 195 201 206 207 203 196 190 193 196 191 188 191 196 201 205 205 205 205 206 204 200 207 221 223 221 226 232 237 243
170 174 179 186 190 193 192 187 181 178 178 179 181 183 184 187 190 192 193 195 198 199 198 198 199 198 197 198 197 194 191 190 191 194 199 202 204 205 202 195 191 192 194 192 189 190 195 202 204 202 201 202 202 202 203 208 218 225 225 229 237 243 249
174 175 181 185 185 189 190 186 182 179 177 178 180 182 183 186 188 189 191 193 196 198 197 196 197 196 197 197 196 194 192 192 194 198 204 206 203 200 198 196 194 193 194 192 190 190 194 198 200 202 203 203 200 199 203 208 217 229 231 231 239 248 254
185 185 184 184 187 190 191 190 186 181 179 179 180 183 184 185 188 188 189 191 193 195 196 194 193 194 195 196 196 195 194 195 195 198 206 209 205 198 196 195 194 192 190 190 190 191 193 194 197 202 206 205 201 199 203 207 217 231 236 236 243 251 256
201 196 189 187 189 192 193 194 190 182 181 180 181 183 184 185 187 187 188 190 191 193 194 191 190 192 193 193 193 196 200 198 193 195 206 212 208 199 194 193 192 190 190 193 193 191 192 193 197 203 207 206 203 199 202 208 217 230 238 240 244 251 257
216 207 198 193 191 192 193 195 192 183 180 181 183 184 184 184 184 185 186 188 189 191 191 189 189 191 192 193 195 200 204 201 193 194 206 213 209 200 196 197 196 197 199 200 196 189 189 192 196 201 204 205 204 202 205 212 218 227 237 239 240 250 259
226 216 207 198 191 188 188 191 190 184 181 183 184 182 181 180 181 182 185 185 185 187 187 187 189 191 193 197 200 203 203 198 195 199 207 213 211 204 201 202 203 203 204 202 198 193 192 195 196 197 198 202 205 206 210 216 221 227 234 234 236 251 260
231 221 210 201 192 186 185 187 188 185 183 183 181 179 178 176 176 179 183 183 182 184 185 188 191 192 196 198 200 204 203 196 198 204 209 213 214 211 207 206 206 206 203 200 198 195 194 195 194 192 195 198 200 204 212 219 223 228 231 228 233 250 256
237 228 216 205 193 186 185 187 187 185 183 182 180 179 177 174 174 178 180 179 179 180 183 189 192 193 195 196 198 203 202 196 199 207 211 214 215 214 212 207 205 205 201 196 192 190 189 191 191 192 195 199 202 209 216 221 224 229 230 227 232 248 251
235 228 221 210 198 189 183 180 181 181 181 181 180 178 176 174 172 172 172 172 174 177 182 187 189 192 195 195 197 201 199 197 202 207 210 213 213 212 213 210 204 202 200 193 188 187 187 188 189 190 193 202 213 218 218 218 224 231 233 230 235 247 249
219 215 211 202 191 184 177 175 177 176 175 174 171 170 171 170 167 165 166 170 173 176 180 183 185 190 193 191 194 198 199 201 205 207 209 212 212 211 214 214 206 200 198 194 189 187 185 185 188 195 202 212 220 221 217 217 223 231 235 234 238 247 250
208 202 199 194 188 183 178 174 171 167 163 161 161 162 166 168 167 165 167 171 173 175 178 181 185 188 191 190 192 196 201 204 207 209 210 212 211 210 214 215 207 197 193 189 187 185 184 187 196 204 209 215 220 222 222 222 226 233 238 236 238 246 248
207 197 194 191 183 174 168 164 160 157 157 159 162 165 166 168 167 165 166 169 173 174 176 180 185 188 190 192 193 195 200 204 208 211 212 213 213 212 215 215 206 194 189 184 181 180 181 190 201 203 203 209 215 219 222 221 225 237 242 238 237 243 243
196 186 178 172 166 163 162 160 156 154 157 161 163 162 160 161 160 158 160 165 169 171 174 180 185 188 191 193 192 194 200 204 208 211 212 215 215 214 216 214 204 196 196 192 182 178 184 196 205 203 201 208 214 218 220 221 227 240 245 243 243 244 238
173 167 163 160 160 161 158 153 147 146 152 155 153 151 150 150 151 152 157 165 168 170 172 177 182 187 192 192 190 194 201 204 207 212 215 217 216 217 218 214 203 197 198 195 186 186 196 205 209 206 206 212 215 215 217 224 233 240 243 245 248 244 232
159 157 157 154 151 147 142 139 139 143 148 147 143 143 144 145 149 153 159 165 166 166 168 173 179 186 191 190 188 193 200 203 207 213 216 217 217 219 217 206 192 185 183 183 185 194 205 211 210 208 209 213 215 213 215 226 238 241 240 242 246 241 226
146 146 144 140 140 140 135 134 136 137 136 135 135 138 142 146 150 153 156 159 158 157 159 165 173 180 183 185 188 192 198 203 208 213 216 217 218 218 211 196 189 185 178 178 187 197 208 212 210 209 211 212 211 208 211 225 236 240 242 242 243 237 222
135 131 126 125 130 134 130 125 124 122 121 126 131 137 142 146 147 148 150 148 143 142 147 156 166 173 176 180 187 194 198 202 207 212 213 213 212 210 200 187 187 189 188 191 198 203 208 209 207 206 206 203 200 199 206 229 240 241 243 245 242 232 221
121 116 115 115 116 116 114 112 113 114 117 123 127 132 141 143 140 139 138 130 127 132 142 153 161 167 171 176 185 196 199 201 206 210 210 207 207 206 196 181 181 190 195 201 208 209 205 202 199 198 196 187 186 199 215 244 255 251 247 245 237 226 221
111 111 112 112 111 110 108 107 109 109 111 115 120 127 135 135 131 128 124 122 127 136 144 151 157 162 168 175 185 196 200 201 206 210 209 206 207 205 194 181 185 195 199 204 210 208 202 197 193 193 195 188 178 190 217 247 258 259 256 247 232 223 221
102 104 105 105 106 108 108 107 107 106 104 103 106 111 117 123 126 125 124 128 136 142 145 149 154 158 165 174 185 196 200 202 207 210 209 206 205 204 197 191 195 199 199 202 208 206 200 192 185 188 199 196 167 157 183 215 222 244 261 256 237 223 219
84 87 91 94 98 104 107 107 106 103 100 96 93 93 96 105 114 118 123 131 138 142 145 148 152 158 164 172 184 195 198 200 204 207 209 209 207 205 203 202 203 201 198 202 207 204 195 185 179 188 200 195 174 163 168 185 191 207 253 261 243 226 220
77 76 77 80 87 95 101 104 103 101 99 94 90 92 95 97 101 108 120 132 137 140 145 148 151 158 165 172 183 193 197 199 201 201 204 206 205 205 205 206 207 204 201 205 205 199 190 179 174 185 193 187 181 177 178 200 202 201 229 250 239 223 219
81 79 77 75 76 79 85 90 93 95 95 91 88 89 92 94 100 109 120 132 139 142 148 150 151 158 165 173 185 192 196 201 202 201 203 202 201 204 206 208 211 208 204 207 203 194 188 177 171 183 189 181 177 181 191 207 205 198 211 225 222 210 204
79 80 80 79 78 78 82 86 88 89 91 91 91 93 96 98 106 117 125 131 137 144 148 145 146 156 165 174 189 196 198 202 201 201 204 198 189 188 186 188 207 209 199 196 195 190 185 175 171 181 181 166 166 178 185 195 204 209 217 220 215 204 193
78 78 79 82 83 82 82 84 86 87 87 89 93 97 99 101 104 114 124 128 133 140 142 140 152 167 173 185 200 203 202 206 203 202 205 193 175 171 157 131 137 153 150 157 172 181 177 170 171 178 172 167 180 188 189 199 211 216 220 219 210 202 196
73 76 77 79 82 82 82 82 83 85 85 87 90 91 92 94 94 101 115 120 126 136 140 148 167 182 190 200 206 203 205 210 204 196 194 177 160 161 150 119 112 119 127 150 170 178 180 183 191 190 176 172 181 184 183 191 204 211 216 214 205 200 200
66 69 74 75 75 78 80 81 82 85 87 90 95 98 99 101 100 104 115 119 123 139 152 165 182 194 201 204 201 198 202 202 180 171 177 168 154 153 149 143 142 138 134 160 178 179 182 188 192 184 171 166 173 181 185 192 197 198 200 199 195 196 200